Temp
13 14 14 15 16 17 16 14 15 17 17 14 11 15 18 20 22 21 22 22 22 20 21 19 19 19 19 17 19 19 18 15 14 20 19 20 20 19 16 12 16 10 10 13
13 14 14 15 16 17 17 13 13 17 17 12 10 16 20 21 22 22 22 22 21 21 18 18 18 18 18 17 18 18 18 15 13 16 17 18 20 19 14 12 10 13 10 13
13 14 14 15 16 17 18 12 13 13 12 12 16 19 20 21 21 22 21 21 20 20 18 17 17 18 18 18 17 15 16 15 15 14 17 17 19 19 16 15 11 12 11 16
13 14 14 16 16 17 17 12 14 14 13 14 16 18 20 20 21 22 21 21 21 20 19 18 16 17 18 18 16 16 15 15 16 15 15 17 18 18 15 15 14 14 14 14
13 13 14 16 16 16 16 13 14 12 13 15 16 16 18 19 20 21 21 20 18 20 18 18 16 16 17 18 17 16 13 12 15 16 13 13 16 16 15 14 15 14 13 13
13 13 15 16 16 16 15 15 15 13 11 13 14 14 18 19 19 18 18 17 15 15 16 15 14 14 14 16 16 14 13 10 10 12 10 11 11 14 15 16 16 14 12 13
13 14 15 16 16 17 18 16 14 12 11 13 15 17 19 18 19 17 17 16 16 17 13 14 14 12 12 13 12 13 11 8 5 8 8 11 15 14 15 16 14 13 12 11
13 14 15 16 17 18 17 18 14 11 7 13 17 16 15 14 14 14 15 14 14 13 12 10 13 9 11 11 11 11 11 7 6 7 9 12 16 14 14 15 14 12 11 10
13 14 14 15 17 18 17 18 16 12 11 13 16 15 15 13 13 13 15 14 13 11 6 8 10 12 14 13 13 11 9 7 8 6 8 9 13 15 15 15 12 11 11 9
13 14 15 16 17 18 17 16 16 15 11 12 15 14 14 12 12 11 14 16 14 11 4 5 8 11 12 12 11 8 7 5 7 2 5 9 11 14 15 13 12 10 10 9
13 14 15 16 18 18 19 15 17 17 10 12 13 13 14 13 12 11 12 12 10 6 8 6 7 5 9 10 12 10 9 8 7 5 6 11 11 14 13 11 10 10 9 8
13 14 15 16 17 17 18 16 16 17 11 12 14 14 14 14 15 11 11 13 11 10 7 5 7 5 8 7 10 11 11 10 9 10 10 12 11 13 12 10 9 8 8 8
13 14 15 16 17 18 19 16 16 17 8 11 12 12 15 16 16 16 12 8 11 10 8 7 5 8 6 8 8 11 11 11 9 11 13 11 11 11 10 10 9 8 9 9
13 14 15 16 17 18 18 17 15 16 6 7 10 14 14 14 16 17 16 12 10 7 6 4 5 5 8 6 8 8 10 11 11 9 11 11 10 9 9 9 8 9 9 9
13 14 14 15 16 17 17 16 13 15 13 8 7 12 13 13 15 14 14 12 9 7 6 5 7 4 6 5 5 7 10 11 9 10 11 11 11 9 8 8 8 9 8 7
12 13 14 14 15 16 17 10 14 14 14 8 8 8 9 11 12 12 11 11 9 7 6 5 6 8 7 7 9 10 11 11 11 12 11 10 9 7 8 9 9 9 7 7
12 13 14 14 15 15 11 10 10 13 14 6 7 6 7 9 9 7 8 8 8 8 7 5 6 5 7 6 8 11 11 11 11 10 9 9 8 8 9 9 8 7 6 6
11 12 13 13 14 13 12 11 12 13 11 5 6 5 6 8 5 6 5 5 6 6 7 6 6 6 5 8 9 10 10 10 10 8 9 9 8 8 7 7 7 5 4 4
11 12 13 13 13 9 10 11 12 13 11 5 4 7 8 5 5 4 5 5 7 5 6 6 6 6 8 9 9 9 9 10 10 9 8 8 8 7 6 5 4 4 4 4
11 12 11 6 7 8 10 12 5 4 3 4 5 5 7 7 4 5 4 4 6 6 6 6 6 7 7 6 6 7 8 8 8 7 6 6 6 5 5 4 5 4 4 3
10 5 4 7 8 9 4 5 5 6 7 5 5 4 7 5 6 5 3 5 5 8 5 7 6 7 6 5 5 5 6 6 6 6 5 4 3 2 3 4 3 3 3 3
8 7 7 8 4 4 7 7 5 6 7 4 6 5 5 4 4 5 5 7 5 7 5 7 7 6 6 6 4 4 5 4 4 3 3 3 3 4 4 3 3 3 3 2
8 6 4 6 4 8 8 8 7 6 4 4 4 5 3 4 4 4 5 7 7 4 7 7 6 5 4 4 4 3 4 3 3 4 4 4 4 4 4 3 3 3 3 2
4 5 6 6 5 5 5 5 5 3 3 3 3 4 4 3 5 4 7 5 5 7 5 3 5 4 4 4 3 3 2 1 2 3 3 3 4 3 3 3 3 2 2 2
3 4 5 4 3 2 2 2 3 2 2 3 3 3 4 4 5 4 4 5 5 4 4 4 2 2 3 2 2 2 2 1 2 3 3 3 3 2 2 3 2 2 2 2
3 3 3 2 3 3 3 3 3 2 2 2 3 4 5 4 4 4 5 5 3 1 3 2 2 2 2 2 2 2 3 2 2 2 2 2 2 2 2 3 3 3 2 2
4 3 2 2 2 3 3 2 2 2 3 4 3 1 3 3 3 4 4 4 3 3 3 2 2 3 2 2 2 4 3 3 3 3 3 3 3 2 2 1 3 3 3 2
Height
730 731 735 741 744 749 754 756 771 763 764 782 794 791 777 766 763 759 763 768 773 784 785 798 800 804 800 799 796 805 807 826 843 821 813 808 810 817 830 862 847 876 877 854
727 728 733 738 742 746 750 760 766 764 764 794 801 780 770 766 765 766 766 771 771 774 790 803 802 803 800 799 801 805 807 827 852 839 827 816 814 817 834 845 858 855 880 855
723 726 732 735 739 744 748 757 776 772 769 775 777 775 773 772 765 766 766 770 771 779 792 796 805 804 802 800 802 806 807 825 832 845 830 825 822 820 828 836 866 854 855 833
720 725 729 732 737 742 746 754 764 762 779 777 774 772 772 774 774 766 768 773 774 781 795 799 806 804 804 802 804 806 811 827 824 828 829 821 819 822 830 832 835 844 834 835
718 724 726 729 735 742 744 754 759 762 767 766 772 777 775 775 772 771 774 780 783 781 792 793 805 803 804 804 806 811 819 838 827 831 837 836 828 826 829 830 827 831 832 834
719 721 723 727 733 741 743 746 748 752 774 774 778 780 771 772 771 778 776 779 790 796 792 792 795 798 800 801 808 818 826 842 850 850 852 844 850 825 820 815 814 821 836 824
717 719 722 726 732 737 740 742 746 757 777 772 770 767 765 770 771 779 781 781 787 793 792 792 797 804 810 810 816 814 833 851 872 869 867 867 818 812 810 811 816 817 820 821
717 719 722 726 731 736 739 739 744 753 785 770 762 766 773 776 780 784 786 786 785 788 796 817 818 836 827 827 826 825 824 851 872 876 867 839 811 811 814 813 816 816 820 825
717 720 723 727 730 735 738 737 740 742 762 768 760 769 770 781 787 791 790 789 789 794 822 831 840 837 823 829 825 830 834 844 855 877 876 866 817 805 803 805 827 810 816 824
721 723 724 726 729 734 738 739 739 738 759 763 761 768 771 776 784 795 792 790 794 799 835 852 848 834 824 833 836 850 857 866 865 899 883 842 812 803 802 825 823 810 813 819
722 724 725 727 729 732 734 738 738 738 759 763 762 762 766 773 778 791 792 800 805 820 829 842 845 858 835 831 823 832 839 852 857 875 875 839 803 804 813 805 803 805 811 814
725 726 727 728 730 733 735 738 740 740 748 764 764 765 765 765 766 777 788 788 794 800 823 838 836 849 838 840 836 819 830 822 829 826 820 800 797 793 792 796 799 805 808 811
726 728 728 729 730 732 733 737 740 743 757 766 766 769 768 766 766 768 782 792 787 793 797 814 830 831 835 837 833 815 809 807 821 813 796 799 797 795 795 796 798 801 804 808
728 729 730 731 732 734 735 737 743 745 759 780 776 769 771 771 768 767 767 771 781 790 799 816 825 832 818 832 819 821 807 806 804 812 799 797 794 793 793 795 797 800 803 806
731 733 734 735 736 737 739 742 746 748 753 779 783 774 775 773 771 769 770 773 781 793 806 814 816 821 820 824 825 818 798 795 808 802 787 787 787 786 790 794 796 799 802 807
735 737 738 739 740 741 741 749 752 751 751 766 787 782 780 778 777 776 778 780 784 791 799 809 807 802 809 817 813 791 784 782 782 784 782 784 784 786 788 792 795 800 805 810
738 740 741 742 743 744 748 756 757 754 754 767 789 793 784 783 782 785 786 785 789 790 800 806 805 808 805 814 812 780 780 779 779 779 783 786 786 787 789 792 797 801 806 813
742 744 745 746 747 750 755 758 757 757 758 768 792 799 794 786 794 796 794 796 795 799 801 805 807 808 810 802 787 783 782 780 778 779 780 779 782 787 793 797 802 807 816 819
745 747 749 750 751 757 761 761 761 761 766 784 793 792 795 791 796 798 799 799 803 806 806 806 806 809 800 789 787 785 783 782 780 782 783 784 788 793 796 800 812 817 819 820
749 751 753 763 763 762 763 764 768 771 777 783 792 795 794 793 801 802 807 806 808 811 808 805 806 799 796 795 791 787 783 780 781 786 792 794 798 802 805 811 814 816 818 819
752 758 765 766 764 765 771 780 785 785 785 789 793 795 791 796 798 803 808 809 809 803 811 804 807 801 803 800 796 793 789 787 789 792 799 804 807 812 815 816 815 816 817 817
756 758 764 766 771 777 780 786 791 789 788 795 793 795 795 798 797 801 807 804 810 803 807 804 800 806 805 804 806 804 801 800 802 805 807 811 813 814 815 816 816 817 817 817
758 762 771 773 784 778 776 779 787 789 795 796 797 797 800 799 800 805 805 801 802 807 801 797 804 807 809 809 809 809 809 808 809 811 812 814 815 815 815 816 816 816 816 816
769 775 778 780 785 789 789 789 790 797 797 798 799 801 800 804 802 805 799 806 807 798 807 819 808 809 811 813 814 814 816 816 815 815 815 815 816 816 816 816 816 815 813 811
777 780 783 789 793 795 797 797 797 799 799 799 800 802 803 804 804 807 809 810 810 810 813 811 816 816 815 816 819 818 818 817 817 817 816 816 816 815 814 813 812 811 809 808
782 787 790 793 792 795 797 797 797 799 800 801 802 803 803 806 806 808 806 806 815 823 814 816 817 818 817 817 818 818 818 817 817 817 817 816 815 814 813 811 810 808 807 804
783 790 791 792 793 795 797 798 799 799 801 802 804 815 809 811 810 808 807 812 812 813 812 814 815 816 815 816 817 817 817 817 816 815 815 814 813 812 810 809 807 805 803 800
Wind_Speed
17 14 14 19 24 24 17 5 3 2 4 4 1 3 5 3 2 6 4 4 3 6 4 4 3 4 1 5 0 2 2 5 3 1 4 3 2 2 4 4 2 1 3 5
16 13 14 22 26 26 8 4 2 2 2 4 1 3 3 1 2 3 2 2 2 2 5 6 2 3 1 4 3 4 2 2 3 6 6 5 2 3 5 5 3 4 4 5
15 13 15 24 28 26 7 4 3 3 3 1 7 3 2 0 3 3 3 3 5 5 5 6 4 3 2 2 3 3 4 3 5 6 4 3 3 2 3 5 3 3 6 3
14 12 16 25 29 23 5 2 4 5 4 2 4 4 2 4 2 2 4 3 3 5 4 3 4 2 2 4 2 3 4 4 2 3 4 1 2 4 6 6 5 6 5 7
12 12 17 24 29 22 2 4 4 3 2 6 6 3 6 7 2 2 0 5 3 1 6 6 7 6 3 3 3 3 4 1 2 1 5 5 4 6 6 6 4 6 4 4
12 12 17 25 29 22 4 3 2 4 3 4 6 5 6 8 6 3 2 8 5 5 2 3 4 4 5 5 6 3 3 4 3 3 4 5 6 8 9 5 4 6 6 7
12 12 18 25 30 27 4 3 4 4 1 3 7 7 4 6 4 7 3 4 6 4 6 4 6 11 11 11 8 3 5 4 3 2 3 2 6 4 5 4 2 3 3 9
12 12 17 24 30 27 5 2 3 3 2 2 3 7 6 7 6 5 3 4 0 8 5 5 5 5 6 5 7 6 3 5 3 3 3 5 4 4 6 6 7 6 8 6
12 12 15 17 24 23 10 3 4 4 6 2 2 5 6 5 4 4 3 4 7 6 4 4 4 4 4 1 2 5 6 6 4 3 4 6 6 3 4 3 5 9 7 8
12 12 14 14 17 20 13 5 4 5 4 2 2 3 6 6 4 4 2 2 3 4 2 3 3 3 3 4 6 3 2 3 5 2 3 8 7 4 3 5 7 7 9 8
12 12 12 13 14 15 9 8 5 3 3 2 3 3 4 3 3 5 5 4 3 3 4 3 3 3 5 2 4 6 7 6 4 3 1 8 7 3 8 6 1 7 7 7
12 12 12 12 14 15 11 7 14 14 6 3 6 14 15 4 4 5 2 4 4 5 4 1 3 2 2 2 3 2 3 7 5 9 6 4 5 3 2 5 6 6 7 6
13 13 12 13 12 9 10 13 8 9 4 4 4 4 8 17 5 3 5 2 5 3 2 4 3 2 4 4 6 3 4 4 3 3 4 7 7 2 3 4 5 5 6 6
13 14 14 13 13 12 14 11 9 10 5 4 4 6 5 12 7 4 3 11 9 7 3 3 3 3 4 3 3 3 5 5 4 4 6 3 6 6 6 6 7 7 6 5
13 13 13 15 16 17 20 22 16 9 5 4 1 2 9 13 11 15 16 19 6 3 3 2 3 2 3 0 2 3 5 6 4 6 7 5 5 7 8 8 7 9 9 6
12 12 12 14 15 11 5 4 10 10 6 4 2 4 5 12 13 18 13 7 4 3 3 2 2 2 3 4 4 7 5 4 5 4 3 4 3 5 6 7 9 11 10 12
13 13 10 9 5 5 9 4 3 5 5 3 3 3 4 6 5 4 3 6 3 2 2 1 2 1 3 3 4 3 6 7 6 4 6 2 3 5 7 10 13 19 17 13
15 15 17 18 17 13 9 14 9 8 10 4 4 2 3 6 2 2 4 2 3 4 1 1 1 1 1 3 5 5 5 4 2 7 3 3 7 10 11 18 17 13 7 7
15 13 11 6 6 5 3 6 10 14 8 3 2 4 3 3 2 1 3 2 2 2 1 1 2 1 4 4 4 6 5 3 4 3 4 8 11 12 13 14 10 6 4 5
12 5 5 3 4 3 3 3 4 5 4 3 2 1 2 2 1 2 2 2 1 1 3 1 1 3 4 6 7 7 7 7 7 9 6 10 12 11 12 8 4 4 5 3
3 3 2 2 4 3 4 3 4 1 2 2 1 1 3 2 3 2 1 2 1 2 3 3 2 2 4 8 10 11 11 16 16 19 17 17 14 9 4 1 2 1 1 2
8 13 7 3 5 3 5 2 1 2 2 2 1 1 1 1 2 3 0 2 1 4 2 1 2 2 4 9 10 10 16 20 18 19 16 13 9 7 5 3 0 2 4 6
6 6 4 2 3 3 5 5 1 2 1 1 1 2 1 2 3 3 2 3 3 1 2 2 0 5 6 5 7 9 13 16 14 9 7 8 6 4 5 4 5 7 8 9
4 2 3 2 2 2 1 1 2 1 1 2 2 2 2 1 2 1 3 0 1 3 2 3 1 3 3 5 5 5 4 5 9 8 7 6 4 3 3 3 5 7 10 12
3 2 3 2 2 3 1 0 2 2 1 1 2 2 2 1 2 1 2 1 2 1 1 1 1 4 4 8 6 4 5 5 6 4 4 3 3 4 6 7 7 9 12 14
3 3 3 1 2 1 1 1 2 1 1 1 2 2 2 0 1 2 2 2 1 2 1 2 3 4 5 5 3 2 1 2 3 4 4 5 6 6 8 10 11 11 13 15
3 2 2 2 3 3 1 1 1 1 2 2 1 3 3 2 2 1 2 2 2 3 3 3 5 4 5 6 5 1 2 2 4 6 7 8 9 10 11 10 15 16 18 19
Wind_Direction
187 181 189 192 180 170 169 122 100 154 187 66 61 171 208 267 325 22 58 95 102 157 125 78 111 139 103 332 133 75 39 122 98 187 298 298 184 123 114 108 214 72 144 275
182 175 189 186 176 168 159 108 109 34 301 135 265 262 283 41 39 40 60 94 72 93 126 99 91 95 339 1 75 139 148 36 68 357 350 349 113 69 90 105 87 199 131 263
171 174 187 181 175 173 159 104 99 337 46 160 140 156 249 344 19 74 59 102 73 83 58 31 136 117 24 39 94 133 101 95 150 181 203 182 156 129 116 120 122 192 224 213
162 174 184 180 178 173 171 86 210 182 189 245 148 152 177 151 103 53 33 54 79 131 114 78 107 118 138 46 14 70 89 117 94 65 14 3 216 180 179 190 188 171 245 210
158 176 175 177 177 173 94 132 140 38 134 128 122 133 192 169 155 128 41 116 36 54 144 174 189 140 165 180 34 71 12 151 74 118 5 1 283 233 231 237 218 248 148 233
160 167 170 173 177 177 159 170 102 107 298 107 109 204 180 202 131 46 26 141 100 50 335 100 75 64 85 131 132 108 76 115 86 256 342 335 330 225 193 202 194 155 183 210
149 151 163 170 175 181 159 156 113 95 187 143 173 176 175 172 185 142 64 74 98 152 136 110 44 49 55 55 33 77 118 90 70 200 19 1 244 306 240 185 244 219 108 160
130 139 157 173 179 186 193 146 146 130 126 218 92 111 121 88 62 70 71 349 335 129 52 63 51 355 19 359 32 20 74 118 93 141 201 300 290 192 152 176 252 199 161 147
115 130 148 163 178 190 211 252 204 120 119 284 115 122 166 131 109 34 43 36 62 66 77 73 133 188 199 243 93 52 57 71 111 129 148 217 241 258 136 113 297 185 156 164
116 126 136 147 163 173 182 142 164 86 105 316 83 149 161 121 97 107 120 145 59 41 70 84 139 222 183 174 177 198 46 13 158 147 226 285 240 207 127 102 238 161 168 172
111 117 125 133 154 164 155 93 90 105 99 0 16 22 130 108 109 136 188 66 343 44 72 121 195 150 221 134 184 180 168 151 197 95 92 277 177 98 165 206 177 168 168 174
110 111 114 122 140 147 147 102 88 83 81 139 89 76 57 41 161 126 37 156 160 166 92 137 131 154 163 139 235 119 244 190 185 185 214 251 240 212 229 166 153 187 165 172
108 103 104 104 119 131 126 109 95 81 85 19 53 5 14 40 42 156 118 298 153 121 121 141 156 158 132 171 236 202 244 166 206 94 247 237 251 262 180 169 171 150 152 156
103 98 96 99 104 112 125 98 75 84 99 105 287 9 39 8 38 123 118 130 89 98 71 102 135 154 185 207 211 178 204 139 189 261 278 284 267 222 181 166 148 133 131 135
105 102 98 101 105 107 102 83 61 71 111 144 254 338 17 21 64 87 112 109 103 109 84 101 207 165 108 60 62 256 192 192 169 229 221 190 230 199 170 155 160 147 139 127
107 106 114 123 121 112 96 45 39 50 86 98 109 322 2 23 67 69 55 58 81 91 129 191 222 265 113 156 211 254 229 221 180 242 224 216 339 170 149 153 151 139 117 108
104 95 102 118 110 69 68 114 360 44 66 83 67 350 334 354 26 36 18 30 52 90 115 151 159 183 113 142 225 259 239 245 248 194 124 79 197 178 156 125 113 108 106 130
110 106 102 100 95 87 63 50 56 55 86 65 112 272 13 12 27 29 359 33 23 20 93 54 154 53 97 248 254 305 310 332 216 184 305 207 119 98 99 105 102 93 115 138
115 108 100 80 44 49 50 72 63 56 67 116 84 139 214 12 45 34 25 39 53 315 95 259 107 164 223 255 322 326 326 289 281 111 79 100 106 104 101 98 106 154 152 162
121 82 44 41 349 69 52 45 29 18 353 38 97 107 146 75 18 32 70 8 102 171 250 72 158 259 292 336 288 268 284 293 156 120 96 104 93 90 86 110 197 137 136 177
68 62 85 56 30 65 34 51 70 350 37 24 79 167 129 352 111 155 80 160 144 226 263 188 246 261 340 358 34 36 48 71 73 85 81 77 86 97 139 147 109 136 254 279
99 111 101 58 34 47 83 66 7 60 204 11 109 40 61 31 70 97 303 157 92 243 153 186 244 60 53 67 56 54 67 71 75 82 94 108 147 184 159 130 50 330 320 324
71 54 57 38 342 79 170 163 208 144 166 5 41 58 39 22 41 69 107 176 224 89 194 232 55 123 98 106 96 87 92 106 118 127 124 125 115 83 55 27 4 348 321 306
66 76 86 46 67 44 77 48 85 130 126 94 72 63 65 4 65 91 176 206 37 227 193 241 47 74 75 40 40 73 54 59 94 88 87 84 74 46 10 333 315 307 307 316
76 37 90 86 100 67 55 33 81 21 75 76 80 66 70 33 98 46 92 50 252 155 170 22 19 85 75 73 47 38 53 45 52 53 50 41 360 340 330 339 331 322 320 317
79 67 102 99 90 97 72 52 87 33 79 64 51 102 93 107 126 120 215 177 172 247 175 140 147 129 143 165 151 169 53 53 31 19 360 345 342 334 322 321 325 337 331 324
66 53 34 94 78 87 99 121 131 139 79 101 106 84 186 58 64 65 34 157 142 156 214 160 181 197 207 175 173 198 336 2 2 357 351 334 329 320 312 307 315 320 318 311